Find Qianfan Jigui 02-01

NORAD ID: 61552 Int'l Des: 2024-185 Owner: YUANX Country: CN Constellation: spacesail operational
LEOCIRCULARPOLAR

Current View

Loading 3D Globe...

About Qianfan Jigui 02-01

Description loading...

Upcoming Passes

Passes for default location (London). Set your location on the main map for personalized predictions.

Altitude History

Loading altitude history...

Two-Line Element Set

1 61552U 24185A 26151.51849301 .00000520 00000-0 26383-3 0 9997
2 61552 88.9851 58.4766 0008935 109.9456 250.2694 14.14463499 93662
Epoch: May 31, 2026 • Age: 6 hours

Current Status

Altitude 847.8 km
Velocity 7.44 km/s
Sub-Earth Point 58.67°N, 75.91°E
Launch Date Oct 15, 2024
Age 1.6 years
Type internet

Technical Details

Classification Payload
Mass 267.00 kg
Dry Mass 267.00 kg
Total Mass 267.00 kg
Length 0.30 m
Diameter 3.00 m
Span 10.00 m
Shape Box+pan
Manufacturer GESIH/SECM
Bus Type Qianfan
Phase Status In Orbit
Owner/State YUANX/CN

Most Searched